Orbital Elements at Epoch 2459200.5 (2020-Dec-17.0) TDB
Reference: JPL 20 (heliocentric ecliptic J2000)
Element | Value | Uncertainty (1-sigma) | Units |
e | .14295577718862 | 3.8877e-08 | |
a | 3.169229454650477 | 2.5041e-08 | au |
q | 2.716169794871851 | 1.337e-07 | au |
i | .6647617225933216 | 4.243e-06 | deg |
node | 119.4918653660253 | 0.00043411 | deg |
peri | 339.8624729539987 | 0.00043457 | deg |
M | 289.4675160373249 | 2.0249e-05 | deg |
tp | 2459604.252877265468 (2022-Jan-24.75287727) | 0.00011791 | TDB |
period | 2060.767289756681 5.64 | 2.4424e-05 6.687e-08 | d yr |
n | .1746922138125096 | 2.0705e-09 | deg/d |
Q | 3.622289114429103 | 2.8621e-08 | au |
|
| | Orbit Determination Parameters
Additional Information
|